Location: Prague
(50.0830°N, 14.4670°E)
Time: 01:52:25
(UTC+02:00)

Envisat - Pass Details

Date: 30 September 2021
Orbit: 764 x 766 km, 98.2° (Epoch: 20 October)

Event Time Altitude Azimuth Distance (km) Brightness Sun altitude
Rises 06:09:03 0° 16° (NNE) 3,244 6.6 -9.1°
Reaches altitude 10° 06:11:24 10° 19° (NNE) 2,313 5.8 -8.7°
Maximum altitude 06:16:28 68° 102° (ESE) 828 3.5 -7.9°
Drops below altitude 10° 06:21:31 10° 185° (S) 2,295 5.4 -7.1°
Sets 06:23:49 0° 188° (S) 3,217 6.1 -6.7°
